Time,TemperatureF,DewpointF,PressureIn,WindDirection,WindDirectionDegrees,WindSpeedMPH,WindSpeedGustMPH,Humidity,HourlyPrecipIn,Conditions,Clouds,dailyrainin,SolarRadiationWatts/m^2,SoftwareType,DateUTC
2013-08-02 00:01:00,68.7,67.3,29.84,SE,141,0.0,2.0,95,0.04,,,0.09,0.0,meteohub,2013-08-02 04:01:00,
2013-08-02 00:02:00,68.7,67.3,29.84,SE,141,0.0,2.0,95,0.04,,,0.09,0.0,meteohub,2013-08-02 04:02:00,
2013-08-02 00:03:00,68.7,67.3,29.84,SE,141,0.0,2.0,95,0.04,,,0.09,0.0,meteohub,2013-08-02 04:03:00,
2013-08-02 00:08:00,68.7,67.3,29.83,South,173,0.0,4.0,95,0.03,,,0.09,0.0,meteohub,2013-08-02 04:08:00,
2013-08-02 00:13:00,68.7,67.3,29.83,SSE,163,2.0,5.0,95,0.03,,,0.09,0.0,meteohub,2013-08-02 04:13:00,
2013-08-02 00:16:00,68.7,67.3,29.84,SSE,167,2.0,6.0,95,0.02,,,0.09,0.0,meteohub,2013-08-02 04:16:00,
2013-08-02 00:21:00,68.7,67.3,29.83,SE,136,5.0,8.0,95,0.02,,,0.09,0.0,meteohub,2013-08-02 04:21:00,
2013-08-02 00:26:00,68.9,67.5,29.83,SE,130,2.0,8.0,95,0.02,,,0.09,0.0,meteohub,2013-08-02 04:26:00,
2013-08-02 00:32:00,68.9,67.5,29.83,SE,136,0.0,8.0,95,0.02,,,0.09,0.0,meteohub,2013-08-02 04:32:00,
2013-08-02 00:37:00,68.9,67.5,29.83,SSE,161,0.0,7.0,95,0.03,,,0.10,0.0,meteohub,2013-08-02 04:37:00,
2013-08-02 00:42:00,68.9,67.5,29.83,SSE,162,0.0,6.0,95,0.03,,,0.10,0.0,meteohub,2013-08-02 04:42:00,
2013-08-02 00:47:00,69.1,67.6,29.83,ESE,121,0.0,6.0,95,0.03,,,0.10,0.0,meteohub,2013-08-02 04:47:00,
2013-08-02 00:52:00,69.1,67.6,29.82,SE,141,2.0,6.0,95,0.02,,,0.10,0.0,meteohub,2013-08-02 04:52:00,
2013-08-02 00:57:00,69.1,67.6,29.82,SSE,167,4.0,4.0,95,0.01,,,0.10,0.0,meteohub,2013-08-02 04:57:00,
2013-08-02 01:02:00,69.1,67.6,29.82,South,169,4.0,6.0,95,0.01,,,0.10,0.0,meteohub,2013-08-02 05:02:00,
2013-08-02 01:07:00,69.1,67.6,29.82,SE,142,2.0,6.0,95,0.01,,,0.10,0.0,meteohub,2013-08-02 05:07:00,
2013-08-02 01:13:00,69.3,67.8,29.81,SSE,150,0.0,6.0,95,0.01,,,0.10,0.0,meteohub,2013-08-02 05:13:00,
2013-08-02 01:18:00,69.3,67.8,29.81,SSE,147,0.0,6.0,95,0.01,,,0.10,0.0,meteohub,2013-08-02 05:18:00,
2013-08-02 01:23:00,69.3,67.8,29.81,South,184,1.0,6.0,95,0.01,,,0.10,0.0,meteohub,2013-08-02 05:23:00,
2013-08-02 01:28:00,69.3,67.8,29.80,SSE,160,2.0,7.0,95,0.01,,,0.10,0.0,meteohub,2013-08-02 05:28:00,
2013-08-02 01:33:00,69.4,68.0,29.80,SSE,148,1.0,7.0,95,0.01,,,0.10,0.0,meteohub,2013-08-02 05:33:00,
2013-08-02 01:38:00,69.3,67.8,29.80,South,180,2.0,6.0,95,0.00,,,0.10,0.0,meteohub,2013-08-02 05:38:00,
2013-08-02 01:43:00,69.4,68.0,29.80,South,169,4.0,6.0,95,0.00,,,0.10,0.0,meteohub,2013-08-02 05:43:00,
2013-08-02 01:48:00,69.4,68.0,29.79,South,169,2.0,7.0,95,0.00,,,0.10,0.0,meteohub,2013-08-02 05:48:00,
2013-08-02 01:53:00,69.4,68.0,29.79,SSW,196,3.0,7.0,95,0.01,,,0.11,0.0,meteohub,2013-08-02 05:53:00,
2013-08-02 01:58:00,69.4,68.0,29.79,SSE,163,4.0,7.0,95,0.01,,,0.11,0.0,meteohub,2013-08-02 05:58:00,
2013-08-02 02:04:00,69.4,68.0,29.79,SE,140,0.0,7.0,95,0.02,,,0.12,0.0,meteohub,2013-08-02 06:04:00,
2013-08-02 02:09:00,69.4,68.0,29.79,South,173,0.0,8.0,95,0.02,,,0.12,0.0,meteohub,2013-08-02 06:09:00,
2013-08-02 02:14:00,69.3,67.8,29.79,SSE,158,0.0,8.0,95,0.02,,,0.12,0.0,meteohub,2013-08-02 06:14:00,
2013-08-02 02:19:00,69.3,68.0,29.78,SSE,158,0.0,8.0,96,0.03,,,0.13,0.0,meteohub,2013-08-02 06:19:00,
2013-08-02 02:24:00,69.3,68.0,29.78,SSE,158,0.0,7.0,96,0.04,,,0.14,0.0,meteohub,2013-08-02 06:24:00,
2013-08-02 02:29:00,69.1,67.8,29.78,SSE,158,0.0,2.0,96,0.05,,,0.15,0.0,meteohub,2013-08-02 06:29:00,
2013-08-02 02:34:00,69.3,68.0,29.78,SSE,165,2.0,2.0,96,0.05,,,0.15,0.0,meteohub,2013-08-02 06:34:00,
2013-08-02 02:39:00,69.3,68.0,29.78,SSE,156,0.0,4.0,96,0.05,,,0.15,0.0,meteohub,2013-08-02 06:39:00,
2013-08-02 02:44:00,69.1,67.8,29.78,SSE,156,0.0,5.0,96,0.05,,,0.15,0.0,meteohub,2013-08-02 06:44:00,
2013-08-02 02:49:00,69.1,67.8,29.77,SSE,156,0.0,5.0,96,0.04,,,0.15,0.0,meteohub,2013-08-02 06:49:00,
2013-08-02 02:54:00,69.1,67.8,29.78,SSE,156,0.0,5.0,96,0.04,,,0.15,0.0,meteohub,2013-08-02 06:54:00,
2013-08-02 02:59:00,69.1,67.8,29.78,SSE,151,0.0,1.0,96,0.03,,,0.15,0.0,meteohub,2013-08-02 06:59:00,
2013-08-02 03:04:00,69.1,67.8,29.77,SSE,151,0.0,5.0,96,0.03,,,0.15,0.0,meteohub,2013-08-02 07:04:00,
2013-08-02 03:09:00,69.3,68.0,29.77,SSE,151,0.0,5.0,96,0.03,,,0.15,0.0,meteohub,2013-08-02 07:09:00,
2013-08-02 03:15:00,69.3,68.0,29.77,SSE,151,2.0,4.0,96,0.02,,,0.15,0.0,meteohub,2013-08-02 07:15:00,
2013-08-02 03:20:00,69.3,68.0,29.77,SSE,151,0.0,4.0,96,0.01,,,0.15,0.0,meteohub,2013-08-02 07:20:00,
2013-08-02 03:25:00,69.3,68.0,29.77,SSE,151,0.0,4.0,96,0.00,,,0.15,0.0,meteohub,2013-08-02 07:25:00,
2013-08-02 03:30:00,69.4,68.2,29.77,SSE,151,0.0,1.0,96,0.00,,,0.15,0.0,meteohub,2013-08-02 07:30:00,
2013-08-02 03:35:00,69.4,68.2,29.77,SSE,151,0.0,4.0,96,0.00,,,0.15,0.0,meteohub,2013-08-02 07:35:00,
2013-08-02 03:40:00,69.6,68.4,29.77,South,182,3.0,6.0,96,0.00,,,0.15,0.0,meteohub,2013-08-02 07:40:00,
2013-08-02 03:45:00,69.6,68.4,29.77,SSE,167,0.0,6.0,96,0.00,,,0.15,0.0,meteohub,2013-08-02 07:45:00,
2013-08-02 03:51:00,69.8,68.5,29.77,SSW,192,0.0,6.0,96,0.00,,,0.15,0.0,meteohub,2013-08-02 07:51:00,
2013-08-02 03:56:00,70.0,68.7,29.77,West,261,2.0,9.0,96,0.00,,,0.15,0.0,meteohub,2013-08-02 07:56:00,
2013-08-02 04:01:00,70.0,68.7,29.77,South,184,1.0,9.0,96,0.00,,,0.15,0.0,meteohub,2013-08-02 08:01:00,
2013-08-02 04:06:00,70.0,68.7,29.77,SSW,211,0.0,9.0,96,0.00,,,0.15,0.0,meteohub,2013-08-02 08:06:00,
2013-08-02 04:11:00,70.2,68.9,29.76,SSW,211,0.0,6.0,96,0.00,,,0.15,0.0,meteohub,2013-08-02 08:11:00,
2013-08-02 04:16:00,70.2,68.9,29.77,SSW,213,2.0,5.0,96,0.00,,,0.15,0.0,meteohub,2013-08-02 08:16:00,
2013-08-02 04:21:00,70.0,68.7,29.77,SSW,213,1.0,3.0,96,0.00,,,0.15,0.0,meteohub,2013-08-02 08:21:00,
2013-08-02 04:26:00,70.0,68.7,29.77,South,186,1.0,6.0,96,0.00,,,0.15,0.0,meteohub,2013-08-02 08:26:00,
2013-08-02 04:32:00,70.0,68.7,29.77,WNW,293,0.0,6.0,96,0.00,,,0.15,0.0,meteohub,2013-08-02 08:32:00,
2013-08-02 04:37:00,69.8,68.5,29.77,WNW,290,0.0,6.0,96,0.00,,,0.15,0.0,meteohub,2013-08-02 08:37:00,
2013-08-02 04:42:00,69.8,68.5,29.77,WNW,290,0.0,5.0,96,0.00,,,0.15,0.0,meteohub,2013-08-02 08:42:00,
2013-08-02 04:47:00,69.6,68.4,29.77,WNW,290,1.0,4.0,96,0.00,,,0.15,0.0,meteohub,2013-08-02 08:47:00,
2013-08-02 04:52:00,69.6,68.4,29.77,SW,230,0.0,4.0,96,0.00,,,0.15,0.0,meteohub,2013-08-02 08:52:00,
2013-08-02 04:57:00,69.4,68.2,29.77,SW,230,0.0,5.0,96,0.00,,,0.15,0.0,meteohub,2013-08-02 08:57:00,
2013-08-02 05:02:00,69.4,68.2,29.77,WSW,240,0.0,5.0,96,0.00,,,0.15,0.0,meteohub,2013-08-02 09:02:00,
2013-08-02 05:07:00,69.4,68.2,29.78,WNW,297,1.0,5.0,96,0.00,,,0.15,0.0,meteohub,2013-08-02 09:07:00,
2013-08-02 05:12:00,69.4,68.2,29.78,WNW,300,4.0,6.0,96,0.00,,,0.15,0.0,meteohub,2013-08-02 09:12:00,
2013-08-02 05:18:00,69.3,68.0,29.78,WNW,300,4.0,7.0,96,0.00,,,0.15,0.0,meteohub,2013-08-02 09:18:00,
2013-08-02 05:22:00,69.3,68.0,29.78,NW,308,6.0,9.0,96,0.00,,,0.15,0.0,meteohub,2013-08-02 09:22:00,
2013-08-02 05:28:00,69.1,67.8,29.78,NW,311,5.0,9.0,96,0.00,,,0.15,0.0,meteohub,2013-08-02 09:28:00,
2013-08-02 05:33:00,69.1,67.8,29.79,NW,306,4.0,12.0,96,0.00,,,0.15,0.0,meteohub,2013-08-02 09:33:00,
2013-08-02 05:38:00,68.9,67.6,29.79,NW,313,4.0,12.0,96,0.00,,,0.15,0.0,meteohub,2013-08-02 09:38:00,
2013-08-02 05:43:00,68.9,67.6,29.80,NW,311,4.0,12.0,96,0.00,,,0.15,0.0,meteohub,2013-08-02 09:43:00,
2013-08-02 05:48:00,68.9,67.6,29.80,NW,314,0.0,7.0,96,0.00,,,0.15,0.0,meteohub,2013-08-02 09:48:00,
2013-08-02 05:53:00,68.7,67.5,29.80,NW,314,2.0,8.0,96,0.00,,,0.15,0.0,meteohub,2013-08-02 09:53:00,
2013-08-02 05:58:00,68.5,67.3,29.80,NW,314,2.0,8.0,96,0.00,,,0.15,0.0,meteohub,2013-08-02 09:58:00,
2013-08-02 06:03:00,68.5,67.3,29.80,NW,314,0.0,7.0,96,0.00,,,0.15,0.0,meteohub,2013-08-02 10:03:00,
2013-08-02 06:08:00,68.5,67.3,29.80,NNW,343,4.0,6.0,96,0.00,,,0.15,5.0,meteohub,2013-08-02 10:08:00,
2013-08-02 06:13:00,68.5,67.3,29.80,NNW,343,0.0,5.0,96,0.00,,,0.15,9.0,meteohub,2013-08-02 10:13:00,
2013-08-02 06:18:00,68.5,67.3,29.80,NNW,343,2.0,6.0,96,0.00,,,0.15,14.0,meteohub,2013-08-02 10:18:00,
2013-08-02 06:24:00,68.5,67.3,29.80,NNW,343,1.0,6.0,96,0.00,,,0.15,16.0,meteohub,2013-08-02 10:24:00,
2013-08-02 06:29:00,68.5,67.3,29.80,NNW,343,2.0,5.0,96,0.00,,,0.15,28.0,meteohub,2013-08-02 10:29:00,
2013-08-02 06:34:00,68.5,67.3,29.80,NNW,343,5.0,5.0,96,0.00,,,0.15,35.0,meteohub,2013-08-02 10:34:00,
2013-08-02 06:39:00,68.5,67.3,29.80,North,0,6.0,6.0,96,0.00,,,0.15,33.0,meteohub,2013-08-02 10:39:00,
2013-08-02 06:44:00,68.4,67.1,29.81,NNE,26,6.0,8.0,96,0.00,,,0.15,37.0,meteohub,2013-08-02 10:44:00,
2013-08-02 06:49:00,68.4,67.1,29.81,NNW,343,2.0,11.0,96,0.00,,,0.15,56.0,meteohub,2013-08-02 10:49:00,
2013-08-02 06:54:00,68.4,67.1,29.82,North,0,5.0,11.0,96,0.00,,,0.15,120.0,meteohub,2013-08-02 10:54:00,
2013-08-02 06:59:00,68.5,67.3,29.82,NNW,342,0.0,11.0,96,0.00,,,0.15,130.0,meteohub,2013-08-02 10:59:00,
2013-08-02 07:04:00,68.5,67.3,29.82,NNW,337,4.0,7.0,96,0.00,,,0.15,142.0,meteohub,2013-08-02 11:04:00,
2013-08-02 07:09:00,68.5,67.1,29.82,NNW,331,5.0,7.0,95,0.00,,,0.15,158.0,meteohub,2013-08-02 11:09:00,
2013-08-02 07:14:00,68.7,67.3,29.82,NW,323,4.0,7.0,95,0.00,,,0.15,176.0,meteohub,2013-08-02 11:14:00,
2013-08-02 07:19:00,68.7,67.3,29.83,NNW,333,2.0,7.0,95,0.00,,,0.15,195.0,meteohub,2013-08-02 11:19:00,
2013-08-02 07:25:00,69.3,68.0,29.83,NNW,331,6.0,8.0,96,0.00,,,0.15,214.0,meteohub,2013-08-02 11:25:00,
2013-08-02 07:30:00,69.3,67.8,29.83,NNW,342,4.0,8.0,95,0.00,,,0.15,232.0,meteohub,2013-08-02 11:30:00,
2013-08-02 07:35:00,69.4,68.0,29.83,NNW,331,4.0,9.0,95,0.00,,,0.15,248.0,meteohub,2013-08-02 11:35:00,
2013-08-02 07:40:00,69.6,68.2,29.83,NW,321,2.0,10.0,95,0.00,,,0.15,264.0,meteohub,2013-08-02 11:40:00,
2013-08-02 07:45:00,70.2,68.4,29.83,NNW,340,5.0,10.0,94,0.00,,,0.15,276.0,meteohub,2013-08-02 11:45:00,
2013-08-02 07:50:00,70.3,68.2,29.83,North,350,5.0,10.0,93,0.00,,,0.15,295.0,meteohub,2013-08-02 11:50:00,
2013-08-02 07:55:00,70.5,68.4,29.83,NNW,336,8.0,11.0,93,0.00,,,0.15,309.0,meteohub,2013-08-02 11:55:00,
2013-08-02 08:00:00,71.1,68.4,29.83,NNW,333,4.0,11.0,91,0.00,,,0.15,320.0,meteohub,2013-08-02 12:00:00,
2013-08-02 08:06:00,71.4,68.4,29.83,NNW,336,2.0,11.0,90,0.00,,,0.15,338.0,meteohub,2013-08-02 12:06:00,
2013-08-02 08:11:00,72.0,68.5,29.83,NNW,347,9.0,10.0,89,0.00,,,0.15,352.0,meteohub,2013-08-02 12:11:00,
2013-08-02 08:16:00,72.1,68.0,29.84,NW,323,5.0,10.0,87,0.00,,,0.15,366.0,meteohub,2013-08-02 12:16:00,
2013-08-02 08:22:00,72.3,67.8,29.83,NW,317,7.0,11.0,86,0.00,,,0.15,383.0,meteohub,2013-08-02 12:22:00,
2013-08-02 08:27:00,72.9,68.0,29.83,NW,318,6.0,11.0,85,0.00,,,0.15,399.0,meteohub,2013-08-02 12:27:00,
2013-08-02 08:32:00,72.9,67.8,29.84,NW,306,7.0,12.0,84,0.00,,,0.15,415.0,meteohub,2013-08-02 12:32:00,
2013-08-02 08:37:00,73.2,68.2,29.83,NNE,18,5.0,13.0,84,0.00,,,0.15,425.0,meteohub,2013-08-02 12:37:00,
2013-08-02 08:41:00,73.8,68.0,29.83,NW,308,8.0,13.0,82,0.00,,,0.15,441.0,meteohub,2013-08-02 12:41:00,
2013-08-02 08:47:00,74.1,68.5,29.84,NNW,334,10.0,13.0,83,0.00,,,0.15,461.0,meteohub,2013-08-02 12:47:00,
2013-08-02 08:52:00,74.5,68.2,29.84,North,5,0.0,13.0,81,0.00,,,0.15,473.0,meteohub,2013-08-02 12:52:00,
2013-08-02 08:57:00,74.8,67.8,29.84,NW,304,6.0,13.0,79,0.00,,,0.15,478.0,meteohub,2013-08-02 12:57:00,
2013-08-02 09:01:00,75.6,68.2,29.84,WNW,299,6.0,13.0,78,0.00,,,0.15,497.0,meteohub,2013-08-02 13:01:00,
2013-08-02 09:07:00,75.7,68.0,29.84,NW,324,8.0,12.0,77,0.00,,,0.15,527.0,meteohub,2013-08-02 13:07:00,
2013-08-02 09:12:00,75.9,68.2,29.85,NW,324,6.0,12.0,77,0.00,,,0.15,533.0,meteohub,2013-08-02 13:12:00,
2013-08-02 09:17:00,75.9,67.5,29.85,North,0,3.0,12.0,75,0.00,,,0.15,548.0,meteohub,2013-08-02 13:17:00,
2013-08-02 09:22:00,76.3,68.2,29.85,NW,318,7.0,12.0,76,0.00,,,0.15,573.0,meteohub,2013-08-02 13:22:00,
2013-08-02 09:27:00,76.6,68.2,29.84,North,355,4.0,12.0,75,0.00,,,0.15,575.0,meteohub,2013-08-02 13:27:00,
2013-08-02 09:32:00,77.2,67.8,29.84,North,0,3.0,12.0,73,0.00,,,0.15,589.0,meteohub,2013-08-02 13:32:00,
2013-08-02 09:37:00,78.1,68.4,29.84,NNW,346,6.0,14.0,72,0.00,,,0.15,603.0,meteohub,2013-08-02 13:37:00,
2013-08-02 09:42:00,78.1,67.5,29.84,North,350,8.0,14.0,70,0.00,,,0.15,613.0,meteohub,2013-08-02 13:42:00,
2013-08-02 09:48:00,78.3,67.6,29.84,North,355,9.0,15.0,70,0.00,,,0.15,626.0,meteohub,2013-08-02 13:48:00,
2013-08-02 09:53:00,79.0,68.0,29.84,NNW,336,13.0,15.0,69,0.00,,,0.15,636.0,meteohub,2013-08-02 13:53:00,
2013-08-02 09:58:00,78.4,66.9,29.85,North,5,4.0,13.0,68,0.00,,,0.15,649.0,meteohub,2013-08-02 13:58:00,
2013-08-02 10:03:00,78.6,67.1,29.85,NNW,344,6.0,16.0,68,0.00,,,0.15,661.0,meteohub,2013-08-02 14:03:00,
2013-08-02 10:08:00,79.5,66.7,29.85,North,0,4.0,16.0,65,0.00,,,0.15,673.0,meteohub,2013-08-02 14:08:00,
2013-08-02 10:13:00,80.4,67.6,29.85,North,5,11.0,16.0,65,0.00,,,0.15,687.0,meteohub,2013-08-02 14:13:00,
2013-08-02 10:18:00,81.0,67.6,29.85,North,5,4.0,14.0,64,0.00,,,0.15,705.0,meteohub,2013-08-02 14:18:00,
2013-08-02 10:23:00,81.0,67.6,29.85,North,0,2.0,12.0,64,0.00,,,0.15,724.0,meteohub,2013-08-02 14:23:00,
2013-08-02 10:28:00,81.1,68.2,29.85,WNW,298,8.0,13.0,65,0.00,,,0.15,724.0,meteohub,2013-08-02 14:28:00,
2013-08-02 10:34:00,80.4,67.1,29.85,NW,309,8.0,15.0,64,0.00,,,0.15,735.0,meteohub,2013-08-02 14:34:00,
2013-08-02 10:39:00,81.5,68.2,29.85,WNW,286,5.0,15.0,64,0.00,,,0.15,744.0,meteohub,2013-08-02 14:39:00,
2013-08-02 10:44:00,81.5,68.2,29.85,NNW,331,6.0,15.0,64,0.00,,,0.15,747.0,meteohub,2013-08-02 14:44:00,
2013-08-02 10:49:00,82.2,67.8,29.85,NNW,336,6.0,12.0,62,0.00,,,0.15,758.0,meteohub,2013-08-02 14:49:00,
2013-08-02 10:54:00,81.7,67.8,29.85,WNW,298,1.0,12.0,63,0.00,,,0.15,772.0,meteohub,2013-08-02 14:54:00,
2013-08-02 10:59:00,81.7,67.8,29.86,WSW,246,5.0,12.0,63,0.00,,,0.15,773.0,meteohub,2013-08-02 14:59:00,
2013-08-02 11:04:00,81.1,67.8,29.86,NW,314,4.0,12.0,64,0.00,,,0.15,780.0,meteohub,2013-08-02 15:04:00,
2013-08-02 11:09:00,82.2,66.4,29.86,NNW,338,7.0,11.0,59,0.00,,,0.15,791.0,meteohub,2013-08-02 15:09:00,
2013-08-02 11:14:00,82.6,67.3,29.86,WNW,302,7.0,15.0,60,0.00,,,0.15,798.0,meteohub,2013-08-02 15:14:00,
2013-08-02 11:19:00,83.1,67.3,29.86,NW,309,5.0,15.0,59,0.00,,,0.15,812.0,meteohub,2013-08-02 15:19:00,
2013-08-02 11:24:00,83.8,66.9,29.86,NNW,345,7.0,15.0,57,0.00,,,0.15,821.0,meteohub,2013-08-02 15:24:00,
2013-08-02 11:30:00,84.4,68.0,29.86,North,349,7.0,15.0,58,0.00,,,0.15,840.0,meteohub,2013-08-02 15:30:00,
2013-08-02 11:35:00,85.5,68.5,29.86,NNE,12,8.0,15.0,57,0.00,,,0.15,891.0,meteohub,2013-08-02 15:35:00,
2013-08-02 11:40:00,85.8,67.8,29.86,NW,323,8.0,13.0,55,0.00,,,0.15,956.0,meteohub,2013-08-02 15:40:00,
2013-08-02 11:45:00,84.9,67.5,29.86,WSW,254,5.0,13.0,56,0.00,,,0.15,207.0,meteohub,2013-08-02 15:45:00,
2013-08-02 11:50:00,82.8,67.5,29.86,NW,313,6.0,10.0,60,0.00,,,0.15,942.0,meteohub,2013-08-02 15:50:00,
2013-08-02 11:55:00,83.8,67.5,29.86,NW,310,1.0,10.0,58,0.00,,,0.15,867.0,meteohub,2013-08-02 15:55:00,
2013-08-02 12:00:00,83.3,66.6,29.86,West,267,1.0,11.0,57,0.00,,,0.15,262.0,meteohub,2013-08-02 16:00:00,
2013-08-02 12:05:00,82.9,67.1,29.86,NW,311,11.0,11.0,59,0.00,,,0.15,1013.0,meteohub,2013-08-02 16:05:00,
2013-08-02 12:10:00,83.1,65.8,29.86,WSW,254,0.0,13.0,56,0.00,,,0.15,183.0,meteohub,2013-08-02 16:10:00,
2013-08-02 12:16:00,80.8,66.9,29.86,South,184,1.0,13.0,63,0.00,,,0.15,255.0,meteohub,2013-08-02 16:16:00,
2013-08-02 12:21:00,79.2,66.4,29.86,SW,219,5.0,13.0,65,0.00,,,0.15,255.0,meteohub,2013-08-02 16:21:00,
2013-08-02 12:26:00,79.2,68.5,29.85,WSW,245,0.0,10.0,70,0.00,,,0.15,981.0,meteohub,2013-08-02 16:26:00,
2013-08-02 12:32:00,80.1,68.5,29.85,West,261,2.0,8.0,68,0.00,,,0.15,1013.0,meteohub,2013-08-02 16:32:00,
2013-08-02 12:37:00,79.3,68.7,29.85,WSW,254,4.0,10.0,70,0.00,,,0.15,1002.0,meteohub,2013-08-02 16:37:00,
2013-08-02 12:42:00,79.7,69.1,29.85,SW,215,8.0,13.0,70,0.00,,,0.15,221.0,meteohub,2013-08-02 16:42:00,
2013-08-02 12:47:00,79.3,69.4,29.86,SSE,155,6.0,15.0,72,0.00,,,0.15,1027.0,meteohub,2013-08-02 16:47:00,
2013-08-02 12:52:00,79.2,69.3,29.85,SSE,154,5.0,15.0,72,0.00,,,0.15,1088.0,meteohub,2013-08-02 16:52:00,
2013-08-02 12:57:00,78.4,69.1,29.86,NNW,342,2.0,15.0,73,0.00,,,0.15,216.0,meteohub,2013-08-02 16:57:00,
2013-08-02 13:02:00,78.4,68.7,29.86,WSW,258,10.0,13.0,72,0.00,,,0.15,229.0,meteohub,2013-08-02 17:02:00,
2013-08-02 13:07:00,78.4,68.7,29.85,WNW,298,8.0,13.0,72,0.00,,,0.15,478.0,meteohub,2013-08-02 17:07:00,
2013-08-02 13:12:00,79.3,68.7,29.85,SSW,211,2.0,13.0,70,0.00,,,0.15,986.0,meteohub,2013-08-02 17:12:00,
2013-08-02 13:18:00,79.3,68.4,29.85,SSW,198,6.0,13.0,69,0.00,,,0.15,937.0,meteohub,2013-08-02 17:18:00,
2013-08-02 13:23:00,78.6,68.0,29.85,SSW,194,9.0,16.0,70,0.00,,,0.15,916.0,meteohub,2013-08-02 17:23:00,
2013-08-02 13:28:00,78.6,68.9,29.85,SW,221,12.0,16.0,72,0.00,,,0.15,893.0,meteohub,2013-08-02 17:28:00,
2013-08-02 13:33:00,78.6,68.9,29.85,SSW,205,6.0,16.0,72,0.00,,,0.15,891.0,meteohub,2013-08-02 17:33:00,
2013-08-02 13:38:00,78.8,68.5,29.85,South,190,5.0,16.0,71,0.00,,,0.15,877.0,meteohub,2013-08-02 17:38:00,
2013-08-02 13:43:00,78.6,68.0,29.85,South,190,6.0,16.0,70,0.00,,,0.15,860.0,meteohub,2013-08-02 17:43:00,
2013-08-02 13:48:00,79.0,68.0,29.85,WSW,248,6.0,15.0,69,0.00,,,0.15,861.0,meteohub,2013-08-02 17:48:00,
2013-08-02 13:53:00,78.6,68.4,29.85,SSW,198,7.0,14.0,71,0.00,,,0.15,863.0,meteohub,2013-08-02 17:53:00,
2013-08-02 13:59:00,79.0,68.0,29.84,SSW,211,3.0,14.0,69,0.00,,,0.15,853.0,meteohub,2013-08-02 17:59:00,
2013-08-02 14:03:00,79.2,67.6,29.84,West,279,14.0,14.0,68,0.00,,,0.15,844.0,meteohub,2013-08-02 18:03:00,
2013-08-02 14:08:00,78.6,68.4,29.84,WSW,257,10.0,15.0,71,0.00,,,0.15,844.0,meteohub,2013-08-02 18:08:00,
2013-08-02 14:14:00,79.5,68.0,29.84,SW,222,9.0,18.0,68,0.00,,,0.15,835.0,meteohub,2013-08-02 18:14:00,
2013-08-02 14:19:00,79.7,68.2,29.84,WSW,250,6.0,18.0,68,0.00,,,0.15,828.0,meteohub,2013-08-02 18:19:00,
2013-08-02 14:24:00,80.1,68.5,29.84,SSW,207,6.0,15.0,68,0.00,,,0.15,830.0,meteohub,2013-08-02 18:24:00,
2013-08-02 14:29:00,81.1,68.2,29.84,South,189,5.0,15.0,65,0.00,,,0.15,823.0,meteohub,2013-08-02 18:29:00,
2013-08-02 14:34:00,80.1,67.6,29.85,WSW,242,4.0,13.0,66,0.00,,,0.15,819.0,meteohub,2013-08-02 18:34:00,
2013-08-02 14:39:00,79.9,67.5,29.85,WSW,241,3.0,16.0,66,0.00,,,0.15,809.0,meteohub,2013-08-02 18:39:00,
2013-08-02 14:44:00,80.2,66.9,29.84,South,191,9.0,16.0,64,0.00,,,0.15,795.0,meteohub,2013-08-02 18:44:00,
2013-08-02 14:49:00,80.2,67.5,29.85,West,269,4.0,16.0,65,0.00,,,0.15,791.0,meteohub,2013-08-02 18:49:00,
2013-08-02 14:54:00,80.8,66.6,29.85,SSW,201,10.0,16.0,62,0.00,,,0.15,780.0,meteohub,2013-08-02 18:54:00,
2013-08-02 14:59:00,80.1,66.7,29.85,SW,236,10.0,16.0,64,0.00,,,0.15,779.0,meteohub,2013-08-02 18:59:00,
2013-08-02 15:05:00,80.1,66.4,29.85,SW,221,9.0,18.0,63,0.00,,,0.15,777.0,meteohub,2013-08-02 19:05:00,
2013-08-02 15:10:00,80.2,66.6,29.85,West,259,6.0,16.0,63,0.00,,,0.15,768.0,meteohub,2013-08-02 19:10:00,
2013-08-02 15:15:00,80.2,66.9,29.85,West,268,8.0,16.0,64,0.00,,,0.15,751.0,meteohub,2013-08-02 19:15:00,
2013-08-02 15:20:00,80.4,67.1,29.85,SSW,210,9.0,14.0,64,0.00,,,0.15,752.0,meteohub,2013-08-02 19:20:00,
2013-08-02 15:25:00,81.3,68.0,29.84,SSW,211,4.0,14.0,64,0.00,,,0.15,738.0,meteohub,2013-08-02 19:25:00,
2013-08-02 15:30:00,81.1,67.3,29.85,SSE,161,0.0,13.0,63,0.00,,,0.15,749.0,meteohub,2013-08-02 19:30:00,
2013-08-02 15:35:00,81.9,68.0,29.84,SW,234,4.0,14.0,63,0.00,,,0.15,483.0,meteohub,2013-08-02 19:35:00,
2013-08-02 15:40:00,81.3,66.6,29.83,SW,227,11.0,14.0,61,0.00,,,0.15,708.0,meteohub,2013-08-02 19:40:00,
2013-08-02 15:45:00,80.8,66.9,29.84,WSW,238,7.0,19.0,63,0.00,,,0.15,613.0,meteohub,2013-08-02 19:45:00,
2013-08-02 15:50:00,81.7,67.5,29.84,SW,217,4.0,19.0,62,0.00,,,0.15,705.0,meteohub,2013-08-02 19:50:00,
2013-08-02 15:55:00,82.0,67.3,29.83,ESE,121,4.0,19.0,61,0.00,,,0.15,703.0,meteohub,2013-08-02 19:55:00,
2013-08-02 16:01:00,81.9,66.6,29.83,South,183,7.0,17.0,60,0.00,,,0.15,756.0,meteohub,2013-08-02 20:01:00,
2013-08-02 16:06:00,81.1,66.0,29.83,SSE,163,9.0,16.0,60,0.00,,,0.15,796.0,meteohub,2013-08-02 20:06:00,
2013-08-02 16:11:00,81.3,66.6,29.83,South,169,5.0,16.0,61,0.00,,,0.15,763.0,meteohub,2013-08-02 20:11:00,
2013-08-02 16:16:00,81.9,66.6,29.83,SSW,213,3.0,16.0,60,0.00,,,0.15,659.0,meteohub,2013-08-02 20:16:00,
2013-08-02 16:22:00,82.0,65.8,29.83,WSW,237,7.0,14.0,58,0.00,,,0.15,656.0,meteohub,2013-08-02 20:22:00,
2013-08-02 16:27:00,81.1,65.5,29.83,SW,230,7.0,14.0,59,0.00,,,0.15,633.0,meteohub,2013-08-02 20:27:00,
2013-08-02 16:32:00,81.1,66.0,29.83,SSW,207,5.0,14.0,60,0.00,,,0.15,547.0,meteohub,2013-08-02 20:32:00,
2013-08-02 16:37:00,81.0,65.3,29.83,West,267,5.0,14.0,59,0.00,,,0.15,571.0,meteohub,2013-08-02 20:37:00,
2013-08-02 16:42:00,82.0,65.8,29.83,South,172,4.0,13.0,58,0.00,,,0.15,547.0,meteohub,2013-08-02 20:42:00,
2013-08-02 16:47:00,81.7,66.0,29.83,SSW,211,4.0,13.0,59,0.00,,,0.15,533.0,meteohub,2013-08-02 20:47:00,
2013-08-02 16:52:00,81.7,65.5,29.83,SW,235,12.0,13.0,58,0.00,,,0.15,513.0,meteohub,2013-08-02 20:52:00,
2013-08-02 16:57:00,81.7,66.0,29.83,SW,224,0.0,17.0,59,0.00,,,0.15,506.0,meteohub,2013-08-02 20:57:00,
2013-08-02 17:02:00,81.7,65.5,29.83,SSW,200,1.0,17.0,58,0.00,,,0.15,378.0,meteohub,2013-08-02 21:02:00,
2013-08-02 17:08:00,81.7,65.5,29.83,South,191,3.0,17.0,58,0.00,,,0.15,111.0,meteohub,2013-08-02 21:08:00,
2013-08-02 17:13:00,81.3,66.0,29.83,SW,225,7.0,11.0,60,0.00,,,0.15,526.0,meteohub,2013-08-02 21:13:00,
2013-08-02 17:18:00,82.0,66.4,29.83,SSW,196,3.0,11.0,59,0.00,,,0.15,490.0,meteohub,2013-08-02 21:18:00,
2013-08-02 17:23:00,81.9,66.2,29.84,South,171,2.0,11.0,59,0.00,,,0.15,459.0,meteohub,2013-08-02 21:23:00,
2013-08-02 17:28:00,81.7,65.5,29.84,SW,218,4.0,12.0,58,0.00,,,0.15,332.0,meteohub,2013-08-02 21:28:00,
2013-08-02 17:33:00,81.3,65.7,29.83,SE,130,2.0,13.0,59,0.00,,,0.15,397.0,meteohub,2013-08-02 21:33:00,
2013-08-02 17:38:00,81.3,66.0,29.83,SSW,211,4.0,13.0,60,0.00,,,0.15,381.0,meteohub,2013-08-02 21:38:00,
2013-08-02 17:43:00,81.0,65.8,29.83,SSW,204,7.0,13.0,60,0.00,,,0.15,306.0,meteohub,2013-08-02 21:43:00,
2013-08-02 17:48:00,81.0,65.8,29.83,SW,223,4.0,17.0,60,0.00,,,0.15,378.0,meteohub,2013-08-02 21:48:00,
2013-08-02 17:53:00,81.0,65.8,29.83,SSW,204,6.0,17.0,60,0.00,,,0.15,339.0,meteohub,2013-08-02 21:53:00,
2013-08-02 17:58:00,81.5,65.8,29.83,South,181,2.0,12.0,59,0.00,,,0.15,313.0,meteohub,2013-08-02 21:58:00,
2013-08-02 18:03:00,81.3,65.7,29.83,South,169,0.0,11.0,59,0.00,,,0.15,255.0,meteohub,2013-08-02 22:03:00,
2013-08-02 18:08:00,81.3,65.7,29.83,South,190,5.0,11.0,59,0.00,,,0.15,142.0,meteohub,2013-08-02 22:08:00,
2013-08-02 18:14:00,80.8,65.7,29.83,West,271,5.0,8.0,60,0.00,,,0.15,107.0,meteohub,2013-08-02 22:14:00,
2013-08-02 18:19:00,80.6,65.5,29.84,WSW,256,7.0,8.0,60,0.00,,,0.15,135.0,meteohub,2013-08-02 22:19:00,
2013-08-02 18:24:00,80.2,65.1,29.84,WSW,248,3.0,7.0,60,0.00,,,0.15,148.0,meteohub,2013-08-02 22:24:00,
2013-08-02 18:29:00,80.1,64.9,29.84,SW,224,4.0,8.0,60,0.00,,,0.15,207.0,meteohub,2013-08-02 22:29:00,
2013-08-02 18:34:00,80.1,64.9,29.84,SW,222,0.0,8.0,60,0.00,,,0.15,167.0,meteohub,2013-08-02 22:34:00,
2013-08-02 18:39:00,80.1,64.9,29.84,SW,220,2.0,8.0,60,0.00,,,0.15,128.0,meteohub,2013-08-02 22:39:00,
2013-08-02 18:44:00,79.9,65.3,29.84,SW,232,0.0,6.0,61,0.00,,,0.15,97.0,meteohub,2013-08-02 22:44:00,
2013-08-02 18:49:00,79.9,65.3,29.83,SW,232,0.0,6.0,61,0.00,,,0.15,86.0,meteohub,2013-08-02 22:49:00,
2013-08-02 18:54:00,79.5,65.3,29.83,SW,230,0.0,6.0,62,0.00,,,0.15,70.0,meteohub,2013-08-02 22:54:00,
2013-08-02 18:59:00,79.2,65.8,29.83,WSW,242,0.0,4.0,64,0.00,,,0.15,67.0,meteohub,2013-08-02 22:59:00,
2013-08-02 19:04:00,78.6,65.8,29.83,South,175,0.0,5.0,65,0.00,,,0.15,39.0,meteohub,2013-08-02 23:04:00,
2013-08-02 19:10:00,78.4,65.7,29.83,South,189,4.0,5.0,65,0.00,,,0.15,58.0,meteohub,2013-08-02 23:10:00,
2013-08-02 19:15:00,78.3,66.0,29.84,SSW,211,0.0,8.0,66,0.00,,,0.15,51.0,meteohub,2013-08-02 23:15:00,
2013-08-02 19:20:00,78.3,66.0,29.84,SSW,197,0.0,8.0,66,0.00,,,0.15,53.0,meteohub,2013-08-02 23:20:00,
2013-08-02 19:25:00,78.1,66.2,29.84,SSW,198,0.0,8.0,67,0.00,,,0.15,62.0,meteohub,2013-08-02 23:25:00,
2013-08-02 19:30:00,77.9,66.6,29.84,SSW,194,2.0,5.0,68,0.00,,,0.15,76.0,meteohub,2013-08-02 23:30:00,
2013-08-02 19:35:00,77.7,67.1,29.84,South,178,1.0,6.0,70,0.00,,,0.15,56.0,meteohub,2013-08-02 23:35:00,
2013-08-02 19:40:00,77.7,67.1,29.85,SSW,199,2.0,6.0,70,0.00,,,0.15,32.0,meteohub,2013-08-02 23:40:00,
2013-08-02 19:45:00,77.5,67.5,29.85,SSW,206,4.0,6.0,71,0.00,,,0.15,28.0,meteohub,2013-08-02 23:45:00,
2013-08-02 19:50:00,77.4,67.6,29.85,SSW,213,0.0,5.0,72,0.00,,,0.15,16.0,meteohub,2013-08-02 23:50:00,
2013-08-02 19:55:00,77.2,67.8,29.86,SSW,209,0.0,5.0,73,0.00,,,0.15,9.0,meteohub,2013-08-02 23:55:00,
2013-08-02 20:00:00,76.8,67.8,29.86,SW,236,4.0,7.0,74,0.00,,,0.15,5.0,meteohub,2013-08-03 00:00:00,
2013-08-02 20:06:00,76.5,68.4,29.86,SSW,192,2.0,8.0,76,0.00,,,0.00,0.0,meteohub,2013-08-03 00:06:00,
2013-08-02 20:11:00,76.1,68.4,29.86,South,184,3.0,8.0,77,0.00,,,0.00,0.0,meteohub,2013-08-03 00:11:00,
2013-08-02 20:16:00,75.9,68.5,29.86,SW,221,2.0,8.0,78,0.00,,,0.00,0.0,meteohub,2013-08-03 00:16:00,
2013-08-02 20:21:00,75.7,68.4,29.86,South,179,0.0,6.0,78,0.00,,,0.00,0.0,meteohub,2013-08-03 00:21:00,
2013-08-02 20:26:00,75.6,68.5,29.86,SSW,192,1.0,4.0,79,0.00,,,0.00,0.0,meteohub,2013-08-03 00:26:00,
2013-08-02 20:31:00,75.4,68.7,29.86,SW,219,2.0,8.0,80,0.00,,,0.00,0.0,meteohub,2013-08-03 00:31:00,
2013-08-02 20:37:00,75.0,68.7,29.86,SW,216,4.0,8.0,81,0.00,,,0.00,0.0,meteohub,2013-08-03 00:37:00,
2013-08-02 20:42:00,74.8,68.9,29.87,SSE,166,5.0,8.0,82,0.00,,,0.00,0.0,meteohub,2013-08-03 00:42:00,
2013-08-02 20:46:00,74.7,69.1,29.87,South,180,0.0,6.0,83,0.00,,,0.00,0.0,meteohub,2013-08-03 00:46:00,
2013-08-02 20:52:00,74.7,69.1,29.87,SSW,192,1.0,7.0,83,0.00,,,0.00,0.0,meteohub,2013-08-03 00:52:00,
2013-08-02 20:57:00,74.5,69.3,29.87,WSW,238,4.0,7.0,84,0.00,,,0.00,0.0,meteohub,2013-08-03 00:57:00,
2013-08-02 21:01:00,74.5,69.3,29.87,SSW,209,3.0,7.0,84,0.00,,,0.00,0.0,meteohub,2013-08-03 01:01:00,
2013-08-02 21:07:00,74.1,68.9,29.87,SSW,213,2.0,7.0,84,0.00,,,0.00,0.0,meteohub,2013-08-03 01:07:00,
2013-08-02 21:12:00,74.1,69.3,29.87,SSW,207,3.0,6.0,85,0.00,,,0.00,0.0,meteohub,2013-08-03 01:12:00,
2013-08-02 21:16:00,73.9,69.1,29.87,SW,236,0.0,7.0,85,0.00,,,0.00,0.0,meteohub,2013-08-03 01:16:00,
2013-08-02 21:22:00,73.9,69.1,29.88,SW,233,2.0,7.0,85,0.00,,,0.00,0.0,meteohub,2013-08-03 01:22:00,
2013-08-02 21:27:00,73.9,69.1,29.87,SW,217,0.0,7.0,85,0.00,,,0.00,0.0,meteohub,2013-08-03 01:27:00,
2013-08-02 21:32:00,73.8,68.9,29.88,SSW,207,0.0,5.0,85,0.00,,,0.00,0.0,meteohub,2013-08-03 01:32:00,
2013-08-02 21:36:00,73.8,68.9,29.88,SSW,202,0.0,4.0,85,0.00,,,0.00,0.0,meteohub,2013-08-03 01:36:00,
2013-08-02 21:42:00,73.8,69.3,29.88,SSW,213,0.0,4.0,86,0.00,,,0.00,0.0,meteohub,2013-08-03 01:42:00,
2013-08-02 21:46:00,73.6,69.1,29.88,SSE,147,0.0,4.0,86,0.00,,,0.00,0.0,meteohub,2013-08-03 01:46:00,
2013-08-02 21:52:00,73.6,69.1,29.88,SSE,147,0.0,5.0,86,0.00,,,0.00,0.0,meteohub,2013-08-03 01:52:00,
2013-08-02 21:57:00,73.2,68.7,29.88,SSE,147,0.0,5.0,86,0.00,,,0.00,0.0,meteohub,2013-08-03 01:57:00,
2013-08-02 22:02:00,73.0,68.9,29.88,SSE,147,0.0,4.0,87,0.00,,,0.00,0.0,meteohub,2013-08-03 02:02:00,
2013-08-02 22:07:00,73.0,68.9,29.88,South,181,0.0,4.0,87,0.00,,,0.00,0.0,meteohub,2013-08-03 02:07:00,
2013-08-02 22:12:00,73.0,68.9,29.88,SW,219,0.0,5.0,87,0.00,,,0.00,0.0,meteohub,2013-08-03 02:12:00,
2013-08-02 22:17:00,73.0,68.9,29.88,SW,219,0.0,5.0,87,0.00,,,0.00,0.0,meteohub,2013-08-03 02:17:00,
2013-08-02 22:22:00,72.9,68.7,29.87,SW,219,0.0,5.0,87,0.00,,,0.00,0.0,meteohub,2013-08-03 02:22:00,
2013-08-02 22:27:00,72.9,68.7,29.87,SW,219,0.0,2.0,87,0.00,,,0.00,0.0,meteohub,2013-08-03 02:27:00,
2013-08-02 22:32:00,72.7,68.5,29.88,SW,219,0.0,1.0,87,0.00,,,0.00,0.0,meteohub,2013-08-03 02:32:00,
2013-08-02 22:33:00,72.7,68.5,29.88,SW,219,0.0,1.0,87,0.00,,,0.00,0.0,meteohub,2013-08-03 02:33:00,
2013-08-02 22:38:00,72.5,68.4,29.87,SW,219,0.0,3.0,87,0.00,,,0.00,0.0,meteohub,2013-08-03 02:38:00,
2013-08-02 22:43:00,72.5,68.4,29.88,SW,219,0.0,3.0,87,0.00,,,0.00,0.0,meteohub,2013-08-03 02:43:00,
2013-08-02 22:48:00,72.3,68.2,29.88,SW,219,0.0,0.0,87,0.00,,,0.00,0.0,meteohub,2013-08-03 02:48:00,
2013-08-02 22:53:00,72.3,68.2,29.88,SW,219,0.0,2.0,87,0.00,,,0.00,0.0,meteohub,2013-08-03 02:53:00,
2013-08-02 22:59:00,72.3,68.2,29.88,SW,219,0.0,2.0,87,0.00,,,0.00,0.0,meteohub,2013-08-03 02:59:00,
2013-08-02 23:04:00,72.3,68.2,29.88,SW,219,0.0,1.0,87,0.00,,,0.00,0.0,meteohub,2013-08-03 03:04:00,
2013-08-02 23:09:00,72.3,68.2,29.88,SW,219,0.0,2.0,87,0.00,,,0.00,0.0,meteohub,2013-08-03 03:09:00,
2013-08-02 23:13:00,72.1,68.0,29.88,SW,219,0.0,3.0,87,0.00,,,0.00,0.0,meteohub,2013-08-03 03:13:00,
2013-08-02 23:19:00,72.1,68.4,29.88,SW,219,0.0,3.0,88,0.00,,,0.00,0.0,meteohub,2013-08-03 03:19:00,
2013-08-02 23:23:00,72.3,68.5,29.88,WSW,244,3.0,3.0,88,0.00,,,0.00,0.0,meteohub,2013-08-03 03:23:00,
2013-08-02 23:29:00,72.7,68.5,29.88,SSW,210,3.0,4.0,87,0.00,,,0.00,0.0,meteohub,2013-08-03 03:29:00,
2013-08-02 23:34:00,72.9,68.7,29.88,SSW,210,1.0,4.0,87,0.00,,,0.00,0.0,meteohub,2013-08-03 03:34:00,
2013-08-02 23:39:00,73.0,68.9,29.88,SSW,210,0.0,4.0,87,0.00,,,0.00,0.0,meteohub,2013-08-03 03:39:00,
2013-08-02 23:44:00,73.0,68.5,29.88,SSW,204,0.0,4.0,86,0.00,,,0.00,0.0,meteohub,2013-08-03 03:44:00,
2013-08-02 23:49:00,73.2,68.7,29.88,South,169,0.0,3.0,86,0.00,,,0.00,0.0,meteohub,2013-08-03 03:49:00,
2013-08-02 23:54:00,73.4,68.5,29.88,South,187,2.0,4.0,85,0.00,,,0.00,0.0,meteohub,2013-08-03 03:54:00,
2013-08-02 23:59:00,73.6,68.7,29.89,SW,233,3.0,4.0,85,0.00,,,0.00,0.0,meteohub,2013-08-03 03:59:00,